Find Starlink 6326

NORAD ID: 56787 Int'l Des: 2023-078 Owner: SPXS Country: US Constellation: starlink operational
LEOCIRCULAR

当前视图

正在加载3D地球...

About Starlink 6326

Starlink 6326 (NORAD 56787) is a starlink constellation satellite (v1.5) launched May 31, 2023 by SPXS of US. It operates in LEO, CIRCULAR orbit with a mass of 305.00 kg.

即将过境

Passes for default location (London). Set your location on the main map for personalized predictions.

高度历史

Loading altitude history...

两行轨道根数

1 56787U 23078W 26263.91670139 .00005778 00000-0 39463-3 0 9993
2 56787 70.0018 192.0238 0005344 278.3502 10.9539 15.06692207 5661
Epoch: Sep 20, 2026 • Age: 6 hours

当前状态

高度 565.5 km
远地点 / 近地点 N/A
速度 7.58 km/s
星下点 -59.35°S, 13.79°W
发射日期 May 31, 2023
运行时间 3.3 years
类型 internet

技术详情

分类 Payload
质量 305.00 kg
干质量 290.00 kg
长度 0.20 m
跨度 9.00 m
形状 ? Box + pan
制造商 SPXS
平台类型 Starlink
阶段状态 In Orbit
所有者/国家 SPXS/US

Most Searched